SRMSAT (37841 NORAD) Tracking and Keplerian Element Data

This shows tracking and keplerian element data for the satellite.

Feedback or suggestion? Click here.




ElementValue
Catalog37841
NameSRMSAT
Epoch Orbit57335
Epoch Day324.87836567
Epoch Year2022
RAAN29.3593
Inclination19.9734
Eccentricity0.001166
Argument of Perigee263.1806
Mean Anonmoly254.0864
Mean Motion14.10795326
Decay Rate3.87E-06
L11 37841U 11058D 22324.87836567 .00000387 00000+0 67245-4 0 9996
L22 37841 19.9734 29.3593 0011660 263.1806 254.0864 14.10795326573359



Live tracking and technical data element details for SRMSAT (NORAD 37841). SRMSAT can be tracked NOW for your location showing map with azimuth and elevation plus other details from your city location.







IsCatalogInMostPopularTable: catalog: 37841, numindb: 367
Update: records affected: 1



GetName: 37841 SRMSAT

Hit Count: updated at: Fri, 02 Dec 2022 13:47:34 GMT